User: anonymous   Login
Location: Unspecified
(57.6483°N, 3.3184°W)
Time: 09:14:10
(UTC+01:00)
Language:

FO-29 - Orbit

View from above orbital plane
View from above orbital plane
View from above satellite
View from above satellite

Ground track
Ground track

The orbit data is extracted from the following two-line orbital elements,

1 24278U 96046B   21130.81146717 -.00000018  00000-0  20506-4 0  9997
2 24278  98.5687 203.7713 0349318 247.1080 109.2833 13.53103681221159
Epoch (UTC): 10 May 2021 19:28:30
Eccentricity: 0.0349318
inclination: 98.5687°
perigee height: 801 km
apogee height: 1321 km
right ascension of ascending node: 203.7713°
argument of perigee: 247.1080°
revolutions per day: 13.53103681
mean anomaly at epoch: 109.2833°
orbit number at epoch: 22115

The dashed part of the orbit path shows where the satellite is in the earth's shadow,  

DLR